TimeCDT,TemperatureF,Dew PointF,Humidity,Sea Level PressureIn,VisibilityMPH,Wind Direction,Wind SpeedMPH,Gust SpeedMPH,PrecipitationIn,Events,Conditions,WindDirDegrees,DateUTC
12:15 AM,64.9,63.7,96,30.27,7.0,East,5.8,-,N/A,Rain,Rain,100,2013-07-17 05:15:00
12:35 AM,64.9,63.7,96,30.27,10.0,SE,3.5,-,N/A,Rain,Rain,140,2013-07-17 05:35:00
12:55 AM,64.9,63.7,96,30.27,10.0,ESE,6.9,-,0.01,,Light Drizzle,120,2013-07-17 05:55:00
1:15 AM,64.9,63.7,96,30.27,5.0,ESE,8.1,-,N/A,Rain,Rain,120,2013-07-17 06:15:00
1:35 AM,64.9,63.7,96,30.28,5.0,ESE,6.9,-,N/A,Rain,Rain,120,2013-07-17 06:35:00
1:55 AM,64.9,63.7,96,30.28,5.0,SE,6.9,-,N/A,Rain,Heavy Rain,130,2013-07-17 06:55:00
2:15 AM,64.9,63.7,96,30.28,7.0,ESE,5.8,-,N/A,Rain,Rain,110,2013-07-17 07:15:00
2:35 AM,64.9,63.7,96,30.27,3.0,ESE,4.6,-,0.01,Rain,Heavy Rain,120,2013-07-17 07:35:00
2:55 AM,64.9,63.7,96,30.27,1.2,SW,4.6,-,0.02,Rain,Heavy Rain,220,2013-07-17 07:55:00
3:15 AM,64.9,63.7,96,30.27,1.0,East,10.4,-,N/A,Rain,Heavy Rain,100,2013-07-17 08:15:00
3:35 AM,64.9,63.7,96,30.27,1.5,Calm,Calm,-,N/A,Rain-Thunderstorm,Heavy Thunderstorms and Rain,0,2013-07-17 08:35:00
3:55 AM,63.1,61.9,96,30.25,2.5,SE,4.6,-,N/A,Rain,Heavy Rain,140,2013-07-17 08:55:00
4:15 AM,63.1,61.9,96,30.23,4.0,WNW,4.6,-,0.01,Rain,Heavy Rain,290,2013-07-17 09:15:00
4:35 AM,63.1,61.9,96,-9999,5.0,Calm,Calm,-,0.01,Rain,Rain,0,2013-07-17 09:35:00
4:55 AM,64.8,63.7,96,-9999,10.0,Calm,Calm,-,0.02,Rain,Light Rain,0,2013-07-17 09:55:00
5:15 AM,64.9,63.7,96,30.24,7.0,ESE,5.8,-,N/A,Rain,Rain,110,2013-07-17 10:15:00
5:35 AM,63.9,62.6,96,30.24,5.0,East,5.8,-,N/A,Rain,Rain,100,2013-07-17 10:35:00
5:55 AM,64.9,63.7,96,30.25,10.0,ESE,6.9,-,N/A,Rain,Light Rain,110,2013-07-17 10:55:00
6:15 AM,64.9,63.7,96,30.25,7.0,ESE,5.8,-,N/A,Rain,Rain,110,2013-07-17 11:15:00
6:35 AM,64.9,63.7,96,30.26,7.0,SE,4.6,-,0.01,Rain,Rain,130,2013-07-17 11:35:00
6:55 AM,64.9,63.7,96,30.27,7.0,SE,8.1,-,0.01,Rain,Rain,130,2013-07-17 11:55:00
7:15 AM,64.9,63.7,96,30.27,7.0,ESE,3.5,-,N/A,Rain,Rain,110,2013-07-17 12:15:00
7:35 AM,64.9,63.7,96,30.28,10.0,Calm,Calm,-,N/A,Rain,Light Rain,0,2013-07-17 12:35:00
7:55 AM,64.9,63.7,96,30.29,10.0,Calm,Calm,-,0.01,Rain,Light Rain,0,2013-07-17 12:55:00
8:15 AM,64.9,63.7,96,30.31,5.0,Calm,Calm,-,N/A,Rain,Rain,0,2013-07-17 13:15:00
8:35 AM,66.2,65.1,96,30.32,5.0,Calm,Calm,-,N/A,Rain,Rain,0,2013-07-17 13:35:00
8:55 AM,67.5,66.2,96,30.33,7.0,Calm,Calm,-,N/A,Rain,Light Rain,0,2013-07-17 13:55:00
9:15 AM,67.5,66.2,96,-9999,10.0,Calm,Calm,-,N/A,,Overcast,0,2013-07-17 14:15:00
9:35 AM,67.5,66.2,96,-9999,10.0,SSE,4.6,-,N/A,,Overcast,150,2013-07-17 14:35:00
9:55 AM,70.0,68.2,94,30.33,10.0,SE,5.8,-,N/A,,Overcast,130,2013-07-17 14:55:00
10:15 AM,70.0,68.0,93,30.33,10.0,SE,6.9,-,N/A,,Overcast,130,2013-07-17 15:15:00
10:35 AM,70.0,67.6,92,30.33,10.0,ESE,8.1,-,N/A,,Overcast,120,2013-07-17 15:35:00
10:55 AM,70.0,67.1,91,30.33,10.0,SE,9.2,-,N/A,,Overcast,130,2013-07-17 15:55:00
11:15 AM,70.0,65.8,87,30.33,10.0,SE,8.1,-,N/A,,Overcast,140,2013-07-17 16:15:00
11:35 AM,70.3,64.6,82,30.33,10.0,SE,9.2,-,N/A,,Mostly Cloudy,140,2013-07-17 16:35:00
11:55 AM,72.5,66.0,80,30.33,10.0,ESE,10.4,-,N/A,,Scattered Clouds,120,2013-07-17 16:55:00
12:15 PM,72.5,65.8,80,30.33,10.0,SE,10.4,-,N/A,,Scattered Clouds,130,2013-07-17 17:15:00
12:35 PM,72.7,65.7,79,30.33,10.0,SE,10.4,-,N/A,,Scattered Clouds,130,2013-07-17 17:35:00
12:55 PM,72.5,66.4,81,30.33,10.0,ESE,10.4,-,N/A,,Mostly Cloudy,110,2013-07-17 17:55:00
1:15 PM,70.0,65.3,85,30.33,7.0,ESE,10.4,-,N/A,Rain,Light Rain,120,2013-07-17 18:15:00
1:35 PM,70.0,65.5,86,30.32,10.0,SE,5.8,-,N/A,Rain,Light Rain,130,2013-07-17 18:35:00
1:55 PM,72.1,66.4,82,30.32,10.0,ESE,10.4,-,N/A,,Scattered Clouds,120,2013-07-17 18:55:00
2:15 PM,71.4,65.8,82,30.31,10.0,SE,5.8,-,N/A,,Mostly Cloudy,130,2013-07-17 19:15:00
2:35 PM,71.1,67.1,87,30.31,7.0,SE,4.6,-,N/A,Rain,Light Rain,130,2013-07-17 19:35:00
2:55 PM,70.0,65.7,86,30.31,2.0,SE,6.9,-,N/A,Rain,Light Rain,140,2013-07-17 19:55:00
3:15 PM,74.5,69.6,85,30.29,10.0,East,12.7,-,N/A,,Overcast,90,2013-07-17 20:15:00
3:35 PM,69.8,66.2,88,30.30,2.5,ESE,10.4,20.7,N/A,Rain,Heavy Rain,120,2013-07-17 20:35:00
3:55 PM,70.0,67.1,91,30.29,10.0,ESE,8.1,-,N/A,,Overcast,120,2013-07-17 20:55:00
4:15 PM,70.9,66.6,86,30.29,10.0,ESE,6.9,-,N/A,Rain,Light Rain,110,2013-07-17 21:15:00
4:35 PM,71.2,66.2,84,30.28,10.0,ESE,8.1,-,N/A,,Mostly Cloudy,120,2013-07-17 21:35:00
4:55 PM,70.7,66.6,87,30.28,10.0,ESE,10.4,-,N/A,,Overcast,110,2013-07-17 21:55:00
5:15 PM,70.0,66.4,88,30.28,10.0,East,11.5,-,N/A,,Mostly Cloudy,100,2013-07-17 22:15:00
5:35 PM,70.0,66.2,88,30.28,10.0,ESE,10.4,-,N/A,,Mostly Cloudy,110,2013-07-17 22:35:00
5:55 PM,70.0,65.5,86,30.28,10.0,ESE,8.1,-,N/A,,Scattered Clouds,110,2013-07-17 22:55:00
6:15 PM,70.0,65.3,85,30.28,10.0,SE,4.6,-,N/A,,Scattered Clouds,130,2013-07-17 23:15:00
6:35 PM,70.0,65.5,86,30.27,10.0,ESE,5.8,-,N/A,,Clear,110,2013-07-17 23:35:00
6:55 PM,71.2,66.4,85,30.27,10.0,ESE,3.5,-,N/A,,Clear,120,2013-07-17 23:55:00
7:15 PM,72.1,66.7,83,30.27,10.0,SE,16.1,-,N/A,,Mostly Cloudy,140,2013-07-18 00:15:00
7:35 PM,70.0,66.9,90,30.28,10.0,SE,9.2,-,N/A,,Mostly Cloudy,130,2013-07-18 00:35:00
7:55 PM,67.8,64.8,90,30.29,10.0,ESE,5.8,-,N/A,Rain-Thunderstorm,Light Thunderstorms and Rain,120,2013-07-18 00:55:00
8:15 PM,68.7,66.2,92,30.28,10.0,SE,5.8,-,N/A,Rain,Light Rain,130,2013-07-18 01:15:00
8:35 PM,69.8,67.5,92,30.29,10.0,SE,5.8,-,N/A,,Scattered Clouds,130,2013-07-18 01:35:00
8:55 PM,70.0,68.0,93,30.29,10.0,ESE,4.6,-,N/A,,Scattered Clouds,120,2013-07-18 01:55:00
9:15 PM,67.5,65.7,94,30.29,10.0,ESE,4.6,-,N/A,Thunderstorm,Mostly Cloudy,110,2013-07-18 02:15:00
9:35 PM,67.5,65.7,94,30.29,10.0,ESE,4.6,-,N/A,,Scattered Clouds,110,2013-07-18 02:35:00
9:55 PM,67.5,65.7,94,30.30,10.0,ESE,5.8,-,N/A,,Scattered Clouds,110,2013-07-18 02:55:00
10:15 PM,67.5,65.8,95,30.31,10.0,ESE,4.6,-,N/A,,Scattered Clouds,110,2013-07-18 03:15:00
10:35 PM,67.5,66.2,96,30.31,10.0,East,4.6,-,N/A,,Mostly Cloudy,100,2013-07-18 03:35:00
10:55 PM,67.5,66.2,96,30.31,10.0,ESE,5.8,-,N/A,,Mostly Cloudy,120,2013-07-18 03:55:00
11:15 PM,67.5,66.2,96,30.30,10.0,SE,6.9,-,N/A,,Overcast,130,2013-07-18 04:15:00
11:35 PM,67.5,66.2,96,30.29,10.0,SE,6.9,-,N/A,,Overcast,130,2013-07-18 04:35:00
11:55 PM,68.4,66.9,95,30.29,10.0,SSE,5.8,-,N/A,,Overcast,150,2013-07-18 04:55:00